Location: Kudlacze
(49.7800°N, 20.0200°E)
Time: 01:41:36
(UTC+00:00)

N. Korean satellite - Visible Passes

Search period start: 21 September 2021 00:00
Search period end: 01 October 2021 00:00
Orbit: 448 x 498 km, 97.3° (Epoch: 20 September)

Date Brightness Start Highest point End Pass type
(mag) Time Alt. Az. Time Alt. Az. Time Alt. Az.
21 Sep 7.6 03:49:03 10° NNE 03:52:29 51° E 03:55:57 10° S visible
22 Sep 9.1 03:21:40 10° NE 03:24:37 25° E 03:27:35 10° SSE visible
23 Sep 9.9 02:54:59 10° ENE 02:56:38 13° E 02:58:18 10° ESE visible
25 Sep 8.6 03:31:23 10° NNE 03:34:36 32° E 03:37:51 10° SSE visible
26 Sep 9.7 03:04:19 10° NE 03:06:38 16° E 03:09:00 10° SE visible
28 Sep 8.0 03:41:07 10° NNE 03:44:32 42° E 03:47:58 10° S visible
29 Sep 9.4 03:13:48 10° NE 03:16:36 21° E 03:19:24 10° SE visible
30 Sep 10.2 02:47:36 10° ENE 02:48:33 11° E 02:49:29 10° ESE visible
